Location: Bonaustraße
(48.4603°N, 11.9280°E)
Time: 03:35:34
(UTC+01:00)

Envisat - Pass Details

Date: 24 January 2021
Orbit: 764 x 766 km, 98.1° (Epoch: 05 March)

Event Time Altitude Azimuth Distance (km) Brightness Sun altitude
Rises 04:31:19 0° 31° (NNE) 3,243 6.7 -32.8°
Reaches altitude 10° 04:34:58 10° 58° (ENE) 2,310 6.2 -32.2°
Maximum altitude 04:37:21 13° 86° (E) 2,083 6.0 -31.8°
Drops below altitude 10° 04:39:45 10° 115° (ESE) 2,301 6.1 -31.5°
Sets 04:43:21 0° 142° (SE) 3,220 6.6 -30.9°
